Location: Reggio Emilia
(44.6990°N, 10.6297°E)
Time: 16:37:53
(UTC+02:00)

ISS - Visible Passes

Search period start: 07 May 2021 00:00
Search period end: 17 May 2021 00:00
Orbit: 418 x 421 km, 51.6° (Epoch: 07 May)

Date Brightness Start Highest point End Pass type
(mag) Time Alt. Az. Time Alt. Az. Time Alt. Az.
07 May -0.8 02:02:25 13° ENE 02:02:25 13° ENE 02:02:49 10° ENE visible
07 May -2.0 03:35:21 23° NW 03:36:31 30° NNW 03:39:34 10° NE visible
07 May -1.6 05:11:06 10° NW 05:14:00 25° N 05:16:54 10° ENE visible
08 May -2.2 02:49:24 34° N 02:49:24 34° N 02:52:07 10° NE visible
08 May -1.5 04:23:34 10° NW 04:26:24 24° N 04:29:15 10° ENE visible
09 May -1.2 02:03:26 21° NE 02:03:26 21° NE 02:04:44 10° NE visible
09 May -1.5 03:36:23 12° NW 03:38:47 24° N 03:41:38 10° NE visible
09 May -2.0 05:13:06 10° NW 05:16:14 34° NNE 05:19:23 10° E visible
10 May -1.7 02:50:22 23° NNW 02:51:11 26° N 02:54:06 10° NE visible
10 May -1.7 04:25:41 10° NW 04:28:41 29° NNE 04:31:41 10° ENE visible
11 May -1.6 02:04:21 27° NNE 02:04:21 27° NNE 02:06:38 10° NE visible
11 May -1.5 03:38:11 10° NW 03:41:05 25° N 03:43:59 10° ENE visible
11 May -3.2 05:14:58 10° NW 05:18:21 63° NNE 05:21:42 10° ESE visible
12 May -1.0 01:18:16 17° NE 01:18:16 17° NE 01:19:12 10° NE visible
12 May -1.4 02:51:12 13° NW 02:53:29 24° N 02:56:19 10° ENE visible
12 May -2.5 04:27:35 10° NW 04:30:51 45° NNE 04:34:07 10° E visible
13 May -1.4 02:05:02 22° NNW 02:05:52 24° N 02:08:43 10° NE visible
13 May -2.0 03:40:10 10° NW 03:43:18 34° NNE 03:46:27 10° E visible
13 May -3.6 05:16:57 10° WNW 05:20:15 54° SW 05:23:34 10° SE visible
14 May -1.5 01:18:38 25° N 01:18:38 25° N 01:21:11 10° NE visible
14 May -1.7 02:52:44 10° NW 02:55:45 29° NNE 02:58:45 10° ENE visible
14 May -3.8 04:29:28 10° WNW 04:32:51 86° SW 04:36:14 10° ESE visible
14 May -1.8 21:15:59 10° SSE 21:17:17 12° SE 21:18:35 10° ESE visible
14 May -3.9 22:50:14 10° SW 22:53:35 80° SSE 22:55:39 22° ENE visible
15 May -1.8 00:27:39 10° WNW 00:30:40 29° NNW 00:33:41 10° NE visible
15 May -1.5 02:05:15 10° NW 02:08:08 25° N 02:11:03 10° ENE visible
15 May -3.3 03:42:02 10° NW 03:45:24 64° NNE 03:48:45 10° ESE visible
15 May -3.6 22:02:55 10° SW 22:06:11 49° SE 22:09:28 10° ENE visible
15 May -2.1 23:39:57 10° W 23:43:06 36° NNW 23:46:15 10° NE visible
16 May -1.4 01:17:42 10° NW 01:20:32 24° N 01:23:22 10° ENE visible
16 May -2.6 02:54:37 10° NW 02:57:54 45° NNE 03:01:10 10° E visible
16 May -3.1 04:31:34 10° WNW 04:34:39 33° SW 04:37:43 10° SSE visible
16 May -2.9 21:15:50 10° SSW 21:18:51 30° SE 21:21:51 10° ENE visible
16 May -2.7 22:52:18 10° W 22:55:34 47° NNW 22:58:50 10° NE visible
